星链-31870 (STARLINK-31870 )

导读

STARLINK-31870是美国SpaceX星链星座的卫星,于2024年5月18日发射,星链系统旨在为全球提供高速互联网服务,尤其覆盖偏远地区。该卫星延续星链设计,在近地轨道运行,属于美国第二代星链组网卫星,持续推进星链星座规模扩张,增强全球网络覆盖能力。

Basic Information
目录编号:
59787
目录名称:
STARLINK-31870
国际标识:
2024-093F
轨道中心:
EARTH
卫星名称:
星链-31870
卫星全名:
星链-31870 (STARLINK-31870 )
卫星状态:
在轨 (已飞行839 天)
发射日期:
2024-05-18 UTC
国别 :
美国 (US)
星等 :
--
Orbit Information
数据来源 国际轨道数据
星历时间: 2026-09-04T10:07:24+0800
7小时前
查看轨道信息
半长轴: 6861.197km
偏心率: 0.0001095
轨道倾角: 43.003°
近地点辐角 260.457°
升交点赤经 281.014°
平近点角 99.615°
近地点: 482.308km
远地点: 483.812km
周期: 94.267分钟
每日圈数: 15.275765
Detailed Information
固有亮度:
5
最大亮度:
1.5
卫星平台:
Starlink v2.0 mini
覆盖范围:
全球
运营商:
太空探索技术公司
运营商所在国:
美国
制造商(研发单位):
太空探索技术公司
制造商所在国:
美国
使用方式:
暂无
Satellite Introduction
星链(Starlink)计划是由太空探索技术公司(SpaceX)提出的一个巨型低轨卫星互联网星座项目,计划在2019年至2024年间在太空搭建由约1.2万颗卫星组成的“星链”网络,其中1584颗将部署在地球上空550千米处的近地轨道,并从2020年开始工作。该卫星仍在工作。
2D Orbit Map
3D Orbit Map
Orbit Altitude Analysis Chart
Orbit Inclination Analysis Chart
Orbit Comprehensive Analysis Chart
View Comprehensive Chart
Conjunction Data List
Event ID Objects TCA Miss Dist (km) Collision Risk Probability Collision Risk Index (CRI) Action
CDM_260905-012005-978706-784721
2026-09-05T
01:20:29+0000
0.606 km
远距离
5.444719E-5 中风险 0.7
CDM_260905-111305-978706-383921
2026-09-05T
11:13:03+0000
0.849 km
远距离
3.44844E-5 中风险 0.66
CDM_260905-065005-978706-784721
2026-09-05T
06:50:01+0000
1.753 km
极远距离
1.76317E-6 低风险 0.4
CDM_260905-051505-978706-784721
2026-09-05T
05:15:51+0000
1.789 km
极远距离
1.671738E-6 低风险 0.39
CDM_260905-093805-978706-383921
2026-09-05T
09:38:54+0000
2.561 km
极远距离
1.294378E-6 低风险 0.37
CDM_260905-025405-978706-784721
2026-09-05T
02:54:38+0000
2.480 km
极远距离
8.275246E-7 极低风险 0.33